| time (UTC) | temp C | wind direction | speed KPH | gust KPH | rain 1hr cm | rain 24hr cm | rain mn cm | humidity % | barometer mb |
| 20260509084019 | 5 | 0.0 | 1.6 | 0.00 | 0.10 | 0.00 | 80 | 1008.1 | |
| 20260509083041 | 5 | 0.0 | 0.0 | 0.00 | 0.10 | 0.00 | 79 | 1008.1 | |
| 20260509082059 | 5 | 0.0 | 0.0 | 0.00 | 0.10 | 0.00 | 78 | 1008.2 | |
| 20260509081018 | 5 | 0.0 | 0.0 | 0.00 | 0.10 | 0.00 | 76 | 1008.2 | |
| 20260509080018 | 6 | 0.0 | 0.0 | 0.00 | 0.10 | 0.00 | 76 | 1008.2 | |
| 20260509075018 | 5 | 0.0 | 0.0 | 0.00 | 0.10 | 0.00 | 78 | 1008.3 | |
| 20260509074018 | 5 | 0.0 | 0.0 | 0.00 | 0.10 | 0.00 | 78 | 1008.5 | |
| 20260509073018 | 5 | 0.0 | 0.0 | 0.00 | 0.10 | 0.00 | 78 | 1008.5 | |
| 20260509072018 | 5 | 0.0 | 0.0 | 0.00 | 0.10 | 0.00 | 76 | 1008.3 | |
| 20260509071018 | 6 | 0.0 | 0.0 | 0.00 | 0.10 | 0.00 | 75 | 1008.3 | |
| 20260509070018 | 6 | 0.0 | 0.0 | 0.00 | 0.10 | 0.00 | 75 | 1008.3 | |
| 20260509065058 | 5 | 0.0 | 0.0 | 0.00 | 0.13 | 0.00 | 75 | 1008.4 | |
| 20260509064020 | 6 | 0.0 | 0.0 | 0.00 | 0.13 | 0.00 | 75 | 1008.5 | |
| 20260509063018 | 6 | 0.0 | 0.0 | 0.00 | 0.13 | 0.00 | 74 | 1008.6 | |
| 20260509062018 | 6 | 0.0 | 0.0 | 0.00 | 0.18 | 0.00 | 73 | 1008.7 | |
| 20260509061018 | 6 | 180 | 1.6 | 4.8 | 0.00 | 0.18 | 0.00 | 73 | 1008.8 |
| 20260509060018 | 6 | 158 | 1.6 | 3.2 | 0.00 | 0.18 | 0.00 | 72 | 1009.0 |
| 20260509055018 | 6 | 180 | 1.6 | 4.8 | 0.00 | 0.18 | 0.00 | 72 | 1009.2 |
| 20260509054058 | 6 | 180 | 3.2 | 6.4 | 0.00 | 0.18 | 0.00 | 72 | 1009.2 |
| 20260509053017 | 6 | 180 | 3.2 | 4.8 | 0.00 | 0.18 | 0.00 | 73 | 1009.3 |
| 20260509052018 | 6 | 180 | 3.2 | 4.8 | 0.00 | 0.18 | 0.00 | 74 | 1009.4 |
| 20260509051018 | 6 | 180 | 3.2 | 4.8 | 0.00 | 0.18 | 0.00 | 74 | 1009.4 |
| 20260509050018 | 6 | 180 | 3.2 | 4.8 | 0.00 | 0.18 | 0.00 | 73 | 1009.6 |
| 20260509045019 | 6 | 180 | 1.6 | 4.8 | 0.00 | 0.18 | 0.00 | 73 | 1009.6 |
| 20260509044038 | 5 | 180 | 1.6 | 3.2 | 0.00 | 0.18 | 0.00 | 75 | 1009.7 |
| 20260509043038 | 5 | 0.0 | 3.2 | 0.00 | 0.18 | 0.00 | 76 | 1009.7 | |
| 20260509042018 | 5 | 158 | 3.2 | 6.4 | 0.00 | 0.18 | 0.00 | 76 | 1009.8 |
| 20260509041017 | 5 | 158 | 3.2 | 6.4 | 0.00 | 0.18 | 0.00 | 75 | 1009.8 |
| 20260509040018 | 5 | 180 | 3.2 | 4.8 | 0.00 | 0.18 | 0.18 | 75 | 1009.7 |
| 20260509035018 | 5 | 203 | 3.2 | 4.8 | 0.00 | 0.18 | 0.18 | 75 | 1009.7 |
| 20260509034018 | 5 | 180 | 1.6 | 4.8 | 0.00 | 0.18 | 0.18 | 74 | 1009.7 |
| 20260509033018 | 6 | 180 | 3.2 | 6.4 | 0.00 | 0.18 | 0.18 | 73 | 1009.8 |
| 20260509032018 | 6 | 180 | 3.2 | 4.8 | 0.00 | 0.18 | 0.18 | 73 | 1009.7 |
| 20260509031018 | 6 | 180 | 3.2 | 6.4 | 0.00 | 0.18 | 0.18 | 72 | 1009.8 |
| 20260509030018 | 6 | 180 | 3.2 | 4.8 | 0.00 | 0.18 | 0.18 | 72 | 1010.0 |
| 20260509025017 | 6 | 180 | 3.2 | 6.4 | 0.00 | 0.18 | 0.18 | 71 | 1010.0 |
| 20260509024037 | 6 | 180 | 3.2 | 4.8 | 0.00 | 0.18 | 0.18 | 71 | 1010.1 |
| 20260509023037 | 6 | 180 | 3.2 | 6.4 | 0.00 | 0.18 | 0.18 | 70 | 1010.1 |
| 20260509022017 | 7 | 180 | 4.8 | 8.0 | 0.00 | 0.18 | 0.18 | 69 | 1010.0 |
| 20260509021057 | 7 | 180 | 3.2 | 6.4 | 0.00 | 0.18 | 0.18 | 68 | 1010.1 |
| 20260509020017 | 7 | 180 | 4.8 | 8.0 | 0.00 | 0.18 | 0.18 | 67 | 1010.1 |
| 20260509015058 | 7 | 135 | 3.2 | 8.0 | 0.00 | 0.18 | 0.18 | 67 | 1010.0 |
| 20260509014017 | 7 | 180 | 4.8 | 8.0 | 0.00 | 0.18 | 0.18 | 66 | 1009.9 |
| 20260509013017 | 8 | 158 | 4.8 | 8.0 | 0.00 | 0.18 | 0.18 | 64 | 1009.7 |
| 20260509012017 | 8 | 158 | 3.2 | 6.4 | 0.00 | 0.18 | 0.18 | 62 | 1009.6 |
| 20260509011017 | 9 | 180 | 1.6 | 3.2 | 0.00 | 0.18 | 0.18 | 60 | 1009.4 |
| 20260509010017 | 9 | 158 | 1.6 | 3.2 | 0.00 | 0.18 | 0.18 | 57 | 1009.3 |
| 20260509005017 | 10 | 0.0 | 1.6 | 0.00 | 0.18 | 0.18 | 55 | 1009.1 | |
| 20260509004017 | 10 | 180 | 1.6 | 4.8 | 0.00 | 0.18 | 0.18 | 52 | 1009.0 |
| 20260509003138 | 11 | 0.0 | 0.0 | 0.00 | 0.18 | 0.18 | 49 | 1009.0 | |
| 20260509002017 | 11 | 0.0 | 1.6 | 0.00 | 0.18 | 0.18 | 46 | 1008.9 | |
| 20260509001017 | 12 | 0.0 | 1.6 | 0.00 | 0.18 | 0.18 | 42 | 1008.8 | |
| 20260509000017 | 12 | 0.0 | 0.0 | 0.00 | 0.18 | 0.18 | 41 | 1008.8 | |
| 20260508235017 | 13 | 0.0 | 0.0 | 0.00 | 0.18 | 0.18 | 39 | 1008.7 | |
| 20260508234017 | 13 | 23 | 3.2 | 4.8 | 0.00 | 0.18 | 0.18 | 39 | 1008.6 |
| 20260508233017 | 13 | 0.0 | 3.2 | 0.00 | 0.18 | 0.18 | 37 | 1008.5 | |
| 20260508232018 | 13 | 23 | 1.6 | 4.8 | 0.00 | 0.18 | 0.18 | 38 | 1008.5 |
| 20260508231039 | 13 | 45 | 3.2 | 6.4 | 0.00 | 0.18 | 0.18 | 39 | 1008.5 |
| 20260508230019 | 13 | 23 | 4.8 | 6.4 | 0.00 | 0.18 | 0.18 | 39 | 1008.5 |
| 20260508225019 | 13 | 338 | 3.2 | 6.4 | 0.00 | 0.18 | 0.18 | 39 | 1008.5 |
| 20260508224019 | 13 | 338 | 6.4 | 16.1 | 0.00 | 0.18 | 0.18 | 39 | 1008.6 |
| 20260508223019 | 15 | 315 | 3.2 | 6.4 | 0.00 | 0.18 | 0.18 | 36 | 1008.6 |
| 20260508222019 | 15 | 225 | 1.6 | 4.8 | 0.00 | 0.18 | 0.18 | 38 | 1008.6 |
| 20260508221018 | 15 | 315 | 4.8 | 9.7 | 0.00 | 0.18 | 0.18 | 38 | 1008.8 |
| 20260508220018 | 14 | 225 | 1.6 | 9.7 | 0.00 | 0.18 | 0.18 | 38 | 1008.9 |
| 20260508215018 | 14 | 225 | 9.7 | 16.1 | 0.00 | 0.18 | 0.18 | 40 | 1009.0 |
| 20260508214018 | 13 | 248 | 6.4 | 20.9 | 0.00 | 0.18 | 0.18 | 41 | 1009.0 |
| 20260508213018 | 14 | 225 | 9.7 | 22.5 | 0.00 | 0.18 | 0.18 | 37 | 1009.1 |
| 20260508212018 | 14 | 270 | 9.7 | 16.1 | 0.00 | 0.18 | 0.18 | 39 | 1009.0 |
| 20260508211038 | 13 | 315 | 8.0 | 19.3 | 0.00 | 0.18 | 0.18 | 39 | 1008.9 |
| 20260508210018 | 13 | 270 | 9.7 | 17.7 | 0.00 | 0.18 | 0.18 | 40 | 1009.1 |
| 20260508205018 | 13 | 270 | 8.0 | 16.1 | 0.00 | 0.18 | 0.18 | 42 | 1009.2 |
| 20260508204018 | 14 | 270 | 8.0 | 16.1 | 0.00 | 0.18 | 0.18 | 40 | 1009.2 |
| 20260508203039 | 13 | 315 | 3.2 | 6.4 | 0.00 | 0.18 | 0.18 | 46 | 1009.2 |
| 20260508202018 | 13 | 248 | 4.8 | 14.5 | 0.00 | 0.18 | 0.18 | 47 | 1009.3 |
| 20260508201018 | 13 | 248 | 6.4 | 11.3 | 0.00 | 0.18 | 0.18 | 48 | 1009.5 |
| 20260508200018 | 13 | 270 | 1.6 | 8.0 | 0.00 | 0.18 | 0.18 | 44 | 1009.6 |
| 20260508195141 | 13 | 248 | 6.4 | 22.5 | 0.00 | 0.18 | 0.18 | 47 | 1009.7 |
| 20260508194038 | 12 | 248 | 4.8 | 11.3 | 0.00 | 0.18 | 0.18 | 50 | 1009.8 |
| 20260508193018 | 13 | 270 | 6.4 | 16.1 | 0.00 | 0.18 | 0.18 | 46 | 1009.8 |
| 20260508192018 | 12 | 293 | 4.8 | 9.7 | 0.00 | 0.18 | 0.18 | 51 | 1009.7 |
| 20260508191018 | 12 | 225 | 8.0 | 19.3 | 0.00 | 0.18 | 0.18 | 53 | 1009.9 |
| 20260508190038 | 12 | 248 | 4.8 | 9.7 | 0.00 | 0.18 | 0.18 | 58 | 1009.9 |
| 20260508185018 | 11 | 203 | 8.0 | 14.5 | 0.00 | 0.18 | 0.18 | 58 | 1010.1 |
| 20260508184018 | 11 | 225 | 9.7 | 17.7 | 0.00 | 0.18 | 0.18 | 60 | 1010.2 |
| 20260508183018 | 11 | 23 | 3.2 | 9.7 | 0.00 | 0.18 | 0.18 | 61 | 1010.3 |
| 20260508182018 | 10 | 293 | 3.2 | 6.4 | 0.00 | 0.18 | 0.18 | 64 | 1010.3 |
| 20260508181018 | 10 | 293 | 4.8 | 11.3 | 0.00 | 0.18 | 0.18 | 62 | 1010.5 |
| 20260508180038 | 10 | 293 | 8.0 | 14.5 | 0.00 | 0.18 | 0.18 | 58 | 1010.3 |
| 20260508175018 | 10 | 225 | 6.4 | 14.5 | 0.00 | 0.18 | 0.18 | 60 | 1010.4 |
| 20260508174038 | 10 | 225 | 11.3 | 19.3 | 0.00 | 0.18 | 0.18 | 60 | 1010.4 |
| 20260508173018 | 11 | 225 | 3.2 | 9.7 | 0.00 | 0.18 | 0.18 | 60 | 1010.4 |
| 20260508172018 | 10 | 225 | 8.0 | 22.5 | 0.00 | 0.18 | 0.18 | 63 | 1010.4 |
| 20260508171037 | 10 | 225 | 6.4 | 14.5 | 0.00 | 0.18 | 0.18 | 63 | 1010.7 |
| 20260508170017 | 10 | 248 | 6.4 | 17.7 | 0.00 | 0.18 | 0.18 | 64 | 1010.8 |
| 20260508165017 | 9 | 225 | 4.8 | 9.7 | 0.00 | 0.18 | 0.18 | 63 | 1010.8 |
| 20260508164017 | 9 | 248 | 4.8 | 12.9 | 0.00 | 0.18 | 0.18 | 66 | 1010.6 |
| 20260508163017 | 9 | 248 | 3.2 | 8.0 | 0.00 | 0.18 | 0.18 | 66 | 1010.6 |
| 20260508162017 | 9 | 225 | 4.8 | 11.3 | 0.00 | 0.18 | 0.18 | 66 | 1010.8 |
| 20260508161017 | 10 | 203 | 9.7 | 25.7 | 0.00 | 0.18 | 0.18 | 66 | 1010.8 |
| 20260508160017 | 8 | 225 | 8.0 | 16.1 | 0.00 | 0.18 | 0.18 | 69 | 1010.8 |
| 20260508155037 | 8 | 203 | 8.0 | 16.1 | 0.00 | 0.18 | 0.18 | 72 | 1010.9 |
| 20260508154017 | 8 | 225 | 6.4 | 14.5 | 0.03 | 0.18 | 0.18 | 75 | 1010.8 |
| 20260508153038 | 7 | 225 | 4.8 | 9.7 | 0.05 | 0.18 | 0.18 | 78 | 1010.9 |
| 20260508152017 | 6 | 248 | 9.7 | 19.3 | 0.05 | 0.18 | 0.18 | 78 | 1010.9 |
| 20260508151057 | 6 | 225 | 9.7 | 19.3 | 0.08 | 0.18 | 0.18 | 78 | 1011.0 |
| 20260508150017 | 6 | 203 | 6.4 | 11.3 | 0.08 | 0.18 | 0.18 | 81 | 1010.8 |
| 20260508145037 | 6 | 270 | 8.0 | 19.3 | 0.08 | 0.18 | 0.18 | 80 | 1011.0 |
| 20260508144037 | 6 | 248 | 4.8 | 9.7 | 0.05 | 0.15 | 0.15 | 82 | 1011.1 |
| 20260508143017 | 6 | 248 | 4.8 | 16.1 | 0.05 | 0.13 | 0.13 | 79 | 1010.9 |
| 20260508142017 | 7 | 225 | 8.0 | 20.9 | 0.05 | 0.13 | 0.13 | 78 | 1010.8 |
| 20260508141017 | 7 | 225 | 3.2 | 14.5 | 0.03 | 0.10 | 0.10 | 80 | 1010.7 |
| 20260508135019 | 7 | 248 | 6.4 | 16.1 | 0.03 | 0.10 | 0.10 | 78 | 1010.5 |
| 20260508134019 | 7 | 293 | 6.4 | 14.5 | 0.03 | 0.10 | 0.10 | 78 | 1010.5 |
| 20260508133020 | 7 | 248 | 4.8 | 9.7 | 0.00 | 0.08 | 0.08 | 79 | 1010.4 |
| 20260508132019 | 7 | 293 | 4.8 | 8.0 | 0.00 | 0.08 | 0.08 | 77 | 1010.4 |
| 20260508131039 | 7 | 315 | 6.4 | 12.9 | 0.00 | 0.08 | 0.08 | 75 | 1010.4 |
| 20260508130019 | 7 | 293 | 3.2 | 8.0 | 0.00 | 0.08 | 0.08 | 76 | 1010.2 |
| 20260508125019 | 8 | 315 | 6.4 | 11.3 | 0.00 | 0.08 | 0.08 | 75 | 1010.1 |
| 20260508124018 | 8 | 315 | 3.2 | 4.8 | 0.00 | 0.08 | 0.08 | 76 | 1009.8 |
| 20260508123038 | 7 | 248 | 1.6 | 6.4 | 0.00 | 0.08 | 0.08 | 78 | 1009.5 |
| 20260508122019 | 7 | 248 | 1.6 | 4.8 | 0.00 | 0.08 | 0.08 | 78 | 1009.5 |
| 20260508121018 | 7 | 203 | 3.2 | 6.4 | 0.00 | 0.08 | 0.08 | 80 | 1009.8 |
| 20260508120038 | 7 | 203 | 3.2 | 4.8 | 0.00 | 0.08 | 0.08 | 80 | 1009.7 |
| 20260508115039 | 6 | 225 | 1.6 | 4.8 | 0.00 | 0.08 | 0.08 | 83 | 1009.7 |
| 20260508114018 | 6 | 158 | 3.2 | 9.7 | 0.00 | 0.08 | 0.08 | 84 | 1009.6 |
| 20260508113018 | 5 | 180 | 3.2 | 8.0 | 0.00 | 0.08 | 0.08 | 86 | 1009.8 |
| 20260508112018 | 5 | 180 | 4.8 | 9.7 | 0.00 | 0.08 | 0.08 | 86 | 1009.9 |
| 20260508111018 | 5 | 180 | 4.8 | 9.7 | 0.00 | 0.08 | 0.08 | 87 | 1010.0 |
| 20260508110019 | 5 | 158 | 6.4 | 9.7 | 0.00 | 0.08 | 0.08 | 88 | 1010.0 |
| 20260508105018 | 4 | 180 | 3.2 | 6.4 | 0.00 | 0.08 | 0.08 | 88 | 1010.1 |
| 20260508104018 | 4 | 180 | 3.2 | 8.0 | 0.00 | 0.08 | 0.08 | 88 | 1010.1 |
| 20260508103018 | 3 | 180 | 4.8 | 9.7 | 0.00 | 0.08 | 0.08 | 89 | 1009.9 |
| 20260508102018 | 3 | 158 | 1.6 | 6.4 | 0.00 | 0.08 | 0.08 | 89 | 1009.9 |
| 20260508101018 | 3 | 158 | 3.2 | 4.8 | 0.00 | 0.08 | 0.08 | 88 | 1010.0 |
| 20260508100018 | 3 | 158 | 3.2 | 4.8 | 0.00 | 0.08 | 0.08 | 88 | 1010.0 |
| 20260508095018 | 3 | 158 | 3.2 | 6.4 | 0.00 | 0.08 | 0.08 | 88 | 1009.8 |
| 20260508094018 | 3 | 158 | 3.2 | 6.4 | 0.00 | 0.08 | 0.08 | 88 | 1009.8 |
| 20260508093018 | 3 | 158 | 4.8 | 8.0 | 0.00 | 0.08 | 0.08 | 88 | 1009.7 |
| 20260508092039 | 3 | 180 | 4.8 | 8.0 | 0.00 | 0.08 | 0.08 | 88 | 1009.7 |
| 20260508091018 | 3 | 180 | 4.8 | 9.7 | 0.00 | 0.08 | 0.08 | 87 | 1009.7 |
| 20260508090038 | 3 | 180 | 4.8 | 11.3 | 0.00 | 0.08 | 0.08 | 87 | 1009.7 |
| 20260508085018 | 4 | 180 | 6.4 | 11.3 | 0.00 | 0.08 | 0.08 | 87 | 1009.6 |